ニート彗星

P/2001 H5 ( NEAT ) 2015

English version
Home page
Updated on October 13, 2014

---------------------------------------------------------------------

・ プロフィール

・ 軌道要素

Perturbed ephemeris below is based on elements from MPC 43019. 

 Epoch = 2457320.50000 TT   T = 2457317.26184 TT
 Peri. =  224.73280         a =     6.0939180 AU
 Node  =  328.69392 J2000.0 e =     0.6003076
 Incl. =    8.38149         q =     2.4356925 AU

・ 光度変化

        m1 = 12.5 + 5 logΔ + 10.0 log r

---------------------------------------------------------------------

軌道要素はMinor Planet & Comet Ephemeris Serviceで計算したものです。
光度グラフはComet for Windowsで作成したものです。

---------------------------------------------------------------------

Copyright(C) Seiichi Yoshida (comet@aerith.net). All rights reserved.